Regional Weather Roundup
Issued by NWS Little Rock, AR

Home | Current Version | Previous Version | Graphics & Text | Print | Product List | Glossary On
Versions: 1 2 3 4 5 6 7 8 9 10 11 12 13 14 15 16 17 18 19 20 21 22 23 24 25 26 27 28 29 30 31 32
000
ASUS44 KLZK 272205
RWRLZK

WEATHER ROUNDUP FOR ARKANSAS
NATIONAL WEATHER SERVICE LITTLE ROCK AR
500 PM CDT TUE SEP 27 2016

NOTE: "FAIR" INDICATES FEW OR NO CLOUDS BELOW 12,000 FEET WITH NO
SIGNIFICANT WEATHER AND/OR OBSTRUCTIONS TO VISIBILITY.

ARZ001-003-010-029-272300-
NORTHWEST ARKANSAS

CITY           SKY/WX    TMP DP  RH WIND       PRES   REMARKS
FAYETTEVILLE   SUNNY     78  47  33 CALM      30.00F
FORT SMITH     SUNNY     82  37  20 CALM      29.97F
HARRISON       SUNNY     76  46  34 NW7       30.00F
BENTONVILLE    SUNNY     79  43  27 SW7       30.00F
ROGERS         SUNNY     77  45  32 W7        30.00F
SILOAM SPGS    SUNNY     81  43  26 NW7       30.00F
HIGHFILL       SUNNY     80  43  26 W3        29.99F
SPRINGDALE     SUNNY     77  45  31 W9        30.03S
$$

ARZ004-005-016-272300-
NORTH CENTRAL ARKANSAS

CITY           SKY/WX    TMP DP  RH WIND       PRES   REMARKS
BATESVILLE     SUNNY     79  43  27 W5        29.97F
FLIPPIN        SUNNY     81  45  28 W5        29.95F
MTN HOME       SUNNY     77  48  35 W5        29.97F
$$

ARZ040-041-272300-
WEST CENTRAL ARKANSAS

CITY           SKY/WX    TMP DP  RH WIND       PRES   REMARKS
MENA           SUNNY     79  48  34 CALM      30.01S
MOUNT IDA      SUNNY     79  46  31 VRB3      29.98F
$$

ARZ009-017-025-026-028-272300-
NORTHEAST ARKANSAS

CITY           SKY/WX    TMP DP  RH WIND       PRES   REMARKS
CORNING          N/A     79  54  41 W6        29.95F
JONESBORO      SUNNY     81  40  23 NE6       29.95F
NEWPORT        SUNNY     80  45  28 N5        29.96F
WALNUT RIDGE   SUNNY     79  46  31 W5        29.95F
BLYTHEVILLE    SUNNY     81  44  27 W5        29.94F
NW BLYTHEVILLE SUNNY     81  43  26 W8        29.94F
$$

ARZ022-023-033-042-044-272300-
CENTRAL ARKANSAS

CITY           SKY/WX    TMP DP  RH WIND       PRES   REMARKS
LITTLE ROCK    MOSUNNY   81  42  25 VRB3      29.98F
N LITTLE ROCK    N/A     77  46  33 N5        29.97F
JACKSONVILLE   SUNNY     80  46  29 W8        29.97F
SEARCY         SUNNY     81  46  29 SW3       29.98F
HOT SPRINGS    SUNNY     79  46  31 W8        29.98F
RUSSELLVILLE   SUNNY     79  46  31 CALM      29.98F
$$

ARZ036-272300-
EAST ARKANSAS

CITY           SKY/WX    TMP DP  RH WIND       PRES   REMARKS
WEST MEMPHIS   SUNNY     81  35  19 N5        29.94F
$$

ARZ050-053-066-070-073-272300-
SOUTHWEST ARKANSAS

CITY           SKY/WX    TMP DP  RH WIND       PRES   REMARKS
ARKADELPHIA    FAIR      78  52  40 NW6       29.98F
TEXARKANA      MOSUNNY   79  50  36 N5        29.99F
EL DORADO      MOSUNNY   77  53  43 W3        29.98F
DE QUEEN       SUNNY     80  51  36 W6        29.96F
$$

ARZ056-057-069-272300-
SOUTHEAST ARKANSAS

CITY           SKY/WX    TMP DP  RH WIND       PRES   REMARKS
PINE BLUFF     SUNNY     78  44  29 VRB3      29.98F
STUTTGART      SUNNY     79  41  25 W10       29.98F
MONTICELLO     CLOUDY    80  51  36 NW6       29.97F

$$






USA.gov is the U.S. government's official web portal to all federal, state and local government web resources and services.